CW6538 Cattolica IT current weather conditions

sailwx.info

Wind from 005 at 5 knots gusting 6

Air temperature 27.8° C
Dewpoint 16.7° C

Last reported at 2014-Jul-28 09:49 UTC.
Time now 2014-Jul-28 10:24 UTC

Location: N 43°58' E 012°44'.
View on Google Maps.

See reports from other nearby stations

  
Tides and Currents Weather Stations Pressure Air Temp Water Temp Dewpoint Dewpoint Depression Visibility Wind Speed Wind Dir Waves Ship Positions
date/time (UTC)wind fromknots sea level pressurealtimeterstation pressurevisibilityair tempwater tempwave heightnotes
2014-Jul-28 09:49 005 5 gusting 6 27.8
2014-Jul-28 09:44 030 5 gusting 6 27.8
2014-Jul-28 09:39 016 4 gusting 6 27.8
2014-Jul-28 09:34 050 4 gusting 6 27.8
2014-Jul-28 09:24 017 3 gusting 6 27.2
2014-Jul-28 09:19 041 3 gusting 7 27.2
2014-Jul-28 09:14 012 3 gusting 7 26.7
2014-Jul-28 09:09 013 2 gusting 6 27.2
2014-Jul-28 09:04 355 4 gusting 6 26.7
2014-Jul-28 08:59 047 3 gusting 6 27.2
2014-Jul-28 08:54 012 4 gusting 6 26.7
2014-Jul-28 08:49 005 5 gusting 6 26.7
2014-Jul-28 08:44 019 2 gusting 7 26.7
2014-Jul-28 08:39 010 2 gusting 7 26.7
2014-Jul-28 08:34 009 4 gusting 7 26.1
2014-Jul-28 08:29 016 1 gusting 6 26.1
2014-Jul-28 08:24 336 4 gusting 6 26.1
2014-Jul-28 08:19 031 4 gusting 6 26.1
2014-Jul-28 08:14 360 2 gusting 8 25.6
2014-Jul-28 08:09 342 5 gusting 9 25.6
2014-Jul-28 08:04 005 6 gusting 9 25.6
2014-Jul-28 07:59 014 6 gusting 8 25.6
2014-Jul-28 07:54 034 4 gusting 8 25.6
2014-Jul-28 07:49 344 6 gusting 8 25.6
2014-Jul-28 07:44 346 4 gusting 7 25.0
2014-Jul-28 07:39 342 5 gusting 7 25.0
2014-Jul-28 07:34 355 4 gusting 7 25.0
2014-Jul-28 07:29 327 4 gusting 6 24.4
2014-Jul-28 07:24 360 2 gusting 5 24.4
2014-Jul-28 07:19 284 4 gusting 5 24.4
2014-Jul-28 07:14 266 23.9
2014-Jul-28 07:09 244 23.9
2014-Jul-28 07:04 259 0 gusting 4 23.3
2014-Jul-28 06:59 274 23.3
2014-Jul-28 06:54 277 1 gusting 4 22.8
2014-Jul-28 06:49 238 22.8
2014-Jul-28 06:44 238 22.8
2014-Jul-28 06:39 230 22.2
2014-Jul-28 06:34 211 1 gusting 5 22.2
2014-Jul-28 06:29 197 21.7
2014-Jul-28 06:24 197 0 gusting 5 21.7
2014-Jul-28 06:19 197 1 gusting 5 21.1
2014-Jul-28 06:14 197 3 gusting 5 21.1
2014-Jul-28 06:09 197 1 gusting 6 20.6
2014-Jul-28 06:04 200 2 gusting 5 20.6
2014-Jul-28 05:59 200 0 gusting 6 20.0
2014-Jul-28 05:54 198 2 gusting 5 19.4
2014-Jul-28 05:49 187 19.4
2014-Jul-28 05:44 182 0 gusting 4 19.4
2014-Jul-28 05:39 175 18.9
2014-Jul-28 05:34 168 18.9
2014-Jul-28 05:29 168 18.9
2014-Jul-28 05:24 168 18.3
2014-Jul-28 05:19 168 2 gusting 4 18.3
2014-Jul-28 05:14 188 1 gusting 4 18.3
2014-Jul-28 05:09 188 17.8
2014-Jul-28 05:04 188 1 gusting 4 17.8
2014-Jul-28 04:59 188 17.8
2014-Jul-28 04:54 188 1 gusting 4 17.8
2014-Jul-28 04:49 188 17.8
2014-Jul-28 04:44 188 17.8
2014-Jul-28 04:39 188 1 gusting 5 17.8
2014-Jul-28 04:34 188 3 gusting 5 17.8
2014-Jul-28 04:29 190 3 gusting 5 17.8
2014-Jul-28 04:24 195 3 gusting 4 17.8
2014-Jul-28 04:19 195 3 gusting 4 17.8
2014-Jul-28 04:14 200 1 gusting 4 17.8
2014-Jul-28 04:09 214 2 gusting 4 17.8
2014-Jul-28 04:04 217 2 gusting 5 17.8
2014-Jul-28 03:59 217 3 gusting 5 17.8
2014-Jul-28 03:54 184 2 gusting 4 17.8
2014-Jul-28 03:49 184 1 gusting 4 17.8
2014-Jul-28 03:44 184 2 gusting 4 17.8
2014-Jul-28 03:39 184 2 gusting 4 17.8
2014-Jul-28 03:34 184 2 gusting 4 17.8
2014-Jul-28 03:29 184 3 gusting 5 17.8
2014-Jul-28 03:24 184 2 gusting 5 17.8
2014-Jul-28 03:19 184 3 gusting 5 17.8
2014-Jul-28 03:14 189 2 gusting 4 17.8
2014-Jul-28 03:09 189 1 gusting 5 17.8
2014-Jul-28 03:04 190 3 gusting 5 17.8
2014-Jul-28 02:59 171 2 gusting 5 17.8
2014-Jul-28 02:54 171 2 gusting 5 17.8
2014-Jul-28 02:49 122 0 gusting 5 17.8
2014-Jul-28 02:44 184 3 gusting 5 17.8
2014-Jul-28 02:39 184 2 gusting 4 17.8
2014-Jul-28 02:34 184 2 gusting 5 17.8
2014-Jul-28 02:29 184 3 gusting 5 17.8
2014-Jul-28 02:24 184 2 gusting 5 17.8
2014-Jul-28 02:19 184 3 gusting 5 17.8
2014-Jul-28 02:14 184 3 gusting 5 17.8
2014-Jul-28 02:09 184 3 gusting 5 17.8
2014-Jul-28 02:04 184 3 gusting 5 17.8
2014-Jul-28 01:59 204 3 gusting 4 17.8
2014-Jul-28 01:54 192 1 gusting 4 17.8
2014-Jul-28 01:49 192 1 gusting 3 18.3
2014-Jul-28 01:44 192 18.3
2014-Jul-28 01:39 192 18.3
2014-Jul-28 01:34 192 18.3
2014-Jul-28 01:29 192 3 gusting 5 18.3
2014-Jul-28 01:24 196 2 gusting 5 18.3
2014-Jul-28 01:19 196 3 gusting 6 18.3
2014-Jul-28 01:14 196 4 gusting 6 18.3
2014-Jul-28 01:09 189 3 gusting 4 18.3
2014-Jul-28 01:04 190 2 gusting 4 18.3
2014-Jul-28 00:59 190 1 gusting 4 18.3
2014-Jul-28 00:54 190 3 gusting 4 18.3
2014-Jul-28 00:49 190 1 gusting 3 18.3
2014-Jul-28 00:44 190 1 gusting 4 18.3
2014-Jul-28 00:39 190 2 gusting 4 18.3
2014-Jul-28 00:34 190 3 gusting 4 18.3
2014-Jul-28 00:29 190 3 gusting 4 18.3
2014-Jul-28 00:24 190 2 gusting 4 18.3
2014-Jul-28 00:19 190 2 gusting 4 18.3
2014-Jul-28 00:14 190 2 gusting 4 18.3
2014-Jul-28 00:09 190 2 gusting 4 18.9
2014-Jul-28 00:04 190 2 gusting 4 18.9
2014-Jul-27 23:59 190 2 gusting 3 18.9
2014-Jul-27 23:54 190 1 gusting 4 18.9
2014-Jul-27 23:49 190 2 gusting 4 18.9
2014-Jul-27 23:44 190 3 gusting 4 18.9
2014-Jul-27 23:39 190 2 gusting 4 18.9
2014-Jul-27 23:34 190 2 gusting 4 18.9
2014-Jul-27 23:29 190 1 gusting 2 18.9
2014-Jul-27 23:24 190 2 gusting 4 18.9
2014-Jul-27 23:19 190 2 gusting 4 18.9
2014-Jul-27 23:14 190 2 gusting 4 18.9
2014-Jul-27 23:09 190 1 gusting 4 18.9
2014-Jul-27 23:04 190 1 gusting 2 18.9
2014-Jul-27 22:59 190 1 gusting 2 19.4
2014-Jul-27 22:54 190 1 gusting 4 19.4
2014-Jul-27 22:49 190 1 gusting 4 19.4
2014-Jul-27 22:44 190 2 gusting 4 19.4
2014-Jul-27 22:39 190 1 gusting 4 19.4
2014-Jul-27 22:34 190 2 gusting 4 19.4
2014-Jul-27 22:29 190 2 gusting 4 19.4
2014-Jul-27 22:24 190 1 gusting 2 19.4
2014-Jul-27 22:19 190 2 gusting 3 19.4
2014-Jul-27 22:14 190 1 gusting 4 19.4
2014-Jul-27 22:09 190 2 gusting 4 19.4
2014-Jul-27 22:05 190 3 gusting 5 19.4
2014-Jul-27 21:59 190 1 gusting 5 19.4
2014-Jul-27 21:54 190 2 gusting 4 20.0
2014-Jul-27 21:49 190 2 gusting 4 20.0
2014-Jul-27 21:44 190 2 gusting 5 20.0
2014-Jul-27 21:39 190 2 gusting 5 20.0
2014-Jul-27 21:29 186 2 gusting 4 20.0
2014-Jul-27 21:24 186 2 gusting 4 20.0
2014-Jul-27 21:19 170 0 gusting 3 20.0
2014-Jul-27 21:14 170 20.0
2014-Jul-27 21:09 170 3 gusting 4 20.0
2014-Jul-27 21:04 170 2 gusting 4 20.0
2014-Jul-27 20:59 170 1 gusting 4 20.6
2014-Jul-27 20:54 170 2 gusting 4 20.6
2014-Jul-27 20:49 170 3 gusting 4 20.6
2014-Jul-27 20:44 170 2 gusting 4 20.6
2014-Jul-27 20:39 167 2 gusting 4 20.6
2014-Jul-27 20:34 162 0 gusting 3 21.1
2014-Jul-27 20:29 162 21.1
2014-Jul-27 20:24 162 21.1
2014-Jul-27 20:19 162 21.1
2014-Jul-27 20:14 162 2 gusting 3 21.1
2014-Jul-27 20:09 162 1 gusting 4 21.1
2014-Jul-27 20:04 162 2 gusting 4 21.7
2014-Jul-27 19:59 155 0 gusting 4 21.7
2014-Jul-27 19:54 155 1 gusting 4 21.7
2014-Jul-27 19:49 157 0 gusting 4 21.7
2014-Jul-27 19:44 157 0 gusting 2 22.2
2014-Jul-27 19:39 157 22.2
2014-Jul-27 19:34 157 1 gusting 3 22.2
2014-Jul-27 19:29 157 22.2
2014-Jul-27 19:24 157 0 gusting 3 22.8
2014-Jul-27 19:19 157 2 gusting 3 22.8
2014-Jul-27 19:14 157 1 gusting 2 22.8
2014-Jul-27 19:09 157 0 gusting 3 23.3
2014-Jul-27 19:04 327 0 gusting 4 23.3
2014-Jul-27 18:59 327 1 gusting 4 23.9
2014-Jul-27 18:54 327 23.9
2014-Jul-27 18:49 327 23.9
2014-Jul-27 18:44 327 24.4
2014-Jul-27 18:39 327 24.4
2014-Jul-27 18:34 327 24.4
2014-Jul-27 18:29 327 24.4
2014-Jul-27 18:24 327 24.4
2014-Jul-27 18:19 327 24.4
2014-Jul-27 18:14 327 24.4
2014-Jul-27 18:09 327 24.4
2014-Jul-27 18:04 327 0 gusting 4 24.4
2014-Jul-27 17:59 327 0 gusting 3 24.4
2014-Jul-27 17:54 327 23.9
2014-Jul-27 17:49 327 23.9
2014-Jul-27 17:44 327 23.9
2014-Jul-27 17:39 327 23.9
2014-Jul-27 17:34 327 2 gusting 4 23.9
2014-Jul-27 17:29 336 2 gusting 4 23.9
2014-Jul-27 17:24 355 0 gusting 4 23.9
2014-Jul-27 17:19 355 1 gusting 4 23.9
2014-Jul-27 17:14 355 24.4
2014-Jul-27 17:09 355 0 gusting 6 24.4
2014-Jul-27 17:04 355 3 gusting 6 24.4
2014-Jul-27 16:59 338 0 gusting 6 24.4
2014-Jul-27 16:54 005 3 gusting 6 24.4
2014-Jul-27 16:49 005 3 gusting 6 24.4
2014-Jul-27 16:39 027 5 gusting 7 25.0
2014-Jul-27 16:34 022 2 gusting 6 25.0
2014-Jul-27 16:29 041 4 gusting 7 25.0
2014-Jul-27 16:24 036 5 gusting 7 25.0
2014-Jul-27 16:19 005 3 gusting 6 25.0
2014-Jul-27 16:14 005 5 gusting 7 25.0
2014-Jul-27 16:09 030 5 gusting 9 25.6
2014-Jul-27 16:04 051 5 gusting 9 25.6
2014-Jul-27 15:59 037 5 gusting 7 25.0
2014-Jul-27 15:54 360 6 gusting 8 25.6
2014-Jul-27 15:49 010 5 gusting 8 25.0
2014-Jul-27 15:44 036 6 gusting 8 25.0
2014-Jul-27 15:39 005 6 gusting 10 25.0
2014-Jul-27 15:34 005 6 gusting 10 25.0
2014-Jul-27 15:29 005 7 gusting 9 25.0
2014-Jul-27 15:24 011 6 gusting 8 25.0
2014-Jul-27 15:19 005 6 gusting 9 25.6
2014-Jul-27 15:14 046 6 gusting 9 25.6
2014-Jul-27 15:09 355 6 gusting 10 25.0
2014-Jul-27 15:04 043 6 gusting 8 25.0
2014-Jul-27 14:59 014 6 gusting 10 25.0
2014-Jul-27 14:54 009 6 gusting 9 25.0
2014-Jul-27 14:49 020 6 gusting 9 25.0
2014-Jul-27 14:44 013 5 gusting 9 25.0
2014-Jul-27 14:39 351 6 gusting 9 25.0
2014-Jul-27 14:34 346 5 gusting 9 25.0
2014-Jul-27 14:29 011 6 gusting 9 24.4
2014-Jul-27 14:24 005 5 gusting 9 25.0
2014-Jul-27 14:19 013 6 gusting 11 24.4
2014-Jul-27 14:14 350 6 gusting 11 24.4
2014-Jul-27 14:09 009 6 gusting 10 24.4
2014-Jul-27 14:04 005 5 gusting 9 25.0
2014-Jul-27 13:59 017 5 gusting 9 25.0
2014-Jul-27 13:54 013 5 gusting 11 25.0
2014-Jul-27 13:49 350 7 gusting 11 25.0
2014-Jul-27 13:44 019 6 gusting 9 25.6
2014-Jul-27 13:39 338 6 gusting 9 25.6
2014-Jul-27 13:34 005 5 gusting 11 25.6
2014-Jul-27 13:29 012 6 gusting 11 25.0
2014-Jul-27 13:24 331 6 gusting 12 25.0
2014-Jul-27 13:19 355 8 gusting 12 25.0
2014-Jul-27 13:14 329 7 gusting 11 25.6
2014-Jul-27 13:09 011 7 gusting 11 25.0
2014-Jul-27 13:04 348 6 gusting 11 25.0
2014-Jul-27 12:59 017 4 gusting 10 25.6
2014-Jul-27 12:54 355 4 gusting 11 25.0
2014-Jul-27 12:49 005 6 gusting 12 24.4
2014-Jul-27 12:44 360 6 gusting 12 24.4
2014-Jul-27 12:39 005 7 gusting 13 24.4
2014-Jul-27 12:34 015 7 gusting 13 24.4
2014-Jul-27 12:29 014 6 gusting 9 25.0
2014-Jul-27 12:24 360 6 gusting 10 24.4
2014-Jul-27 12:19 340 7 gusting 12 23.9
2014-Jul-27 12:14 301 7 gusting 12 24.4
2014-Jul-27 12:09 335 6 gusting 10 24.4
2014-Jul-27 12:04 292 5 gusting 10 24.4
2014-Jul-27 11:59 337 5 gusting 10 24.4
2014-Jul-27 11:54 326 6 gusting 10 23.9
2014-Jul-27 11:49 360 6 gusting 10 24.4
2014-Jul-27 11:44 325 6 gusting 11 23.9
2014-Jul-27 11:39 319 6 gusting 11 23.9
2014-Jul-27 11:34 016 6 gusting 11 23.9
2014-Jul-27 11:29 011 6 gusting 10 23.9
2014-Jul-27 11:24 355 4 gusting 11 23.9
2014-Jul-27 11:19 355 6 gusting 10 24.4
2014-Jul-27 11:14 340 6 gusting 10 23.9
2014-Jul-27 11:09 319 7 gusting 11 23.9
2014-Jul-27 11:04 312 8 gusting 13 23.3
2014-Jul-27 10:59 336 9 gusting 13 22.8
2014-Jul-27 10:44 286 2 gusting 12 22.8
2014-Jul-27 10:39 005 6 gusting 12 22.8
2014-Jul-27 10:34 348 6 gusting 12 22.8
2014-Jul-27 10:29 325 8 gusting 13 22.8
2014-Jul-27 10:24 336 8 gusting 13 22.8
2014-Jul-27 10:19 005 5 gusting 9 22.8
2014-Jul-27 10:14 346 6 gusting 10 22.8
2014-Jul-27 10:09 298 5 gusting 10 22.8
2014-Jul-27 10:04 343 6 gusting 10 22.8
2014-Jul-27 09:59 360 4 gusting 11 22.8
2014-Jul-27 09:54 347 6 gusting 11 22.2
2014-Jul-27 09:49 360 6 gusting 11 22.2
2014-Jul-27 09:44 328 7 gusting 10 22.2
2014-Jul-27 09:39 315 4 gusting 9 21.7
2014-Jul-27 09:34 298 5 gusting 10 21.7
2014-Jul-27 09:29 300 5 gusting 10 21.7
2014-Jul-27 09:24 290 5 gusting 8 21.1
2014-Jul-27 09:19 344 4 gusting 8 20.6
2014-Jul-27 09:14 288 4 gusting 8 20.0
2014-Jul-27 09:09 270 2 gusting 10 20.0
2014-Jul-27 09:04 305 6 gusting 10 20.0
2014-Jul-27 08:59 330 4 gusting 8 20.0
2014-Jul-27 08:54 311 6 gusting 8 20.0
2014-Jul-27 08:49 278 4 gusting 7 20.0
2014-Jul-27 08:44 307 2 gusting 6 20.0
2014-Jul-27 08:39 294 3 gusting 7 20.0
2014-Jul-27 08:34 355 4 gusting 7 20.0
2014-Jul-27 08:29 265 4 gusting 8 20.0
2014-Jul-27 08:24 271 6 gusting 9 20.0
2014-Jul-27 08:19 315 5 gusting 9 19.4
2014-Jul-27 08:14 261 4 gusting 7 19.4
2014-Jul-27 08:09 340 4 gusting 7 19.4
2014-Jul-27 08:04 282 3 gusting 6 19.4
2014-Jul-27 07:59 279 1 gusting 6 19.4
2014-Jul-27 07:54 317 3 gusting 6 19.4
2014-Jul-27 07:49 298 3 gusting 8 19.4
2014-Jul-27 07:44 305 3 gusting 10 19.4
2014-Jul-27 07:39 306 4 gusting 10 19.4
2014-Jul-27 07:34 270 5 gusting 8 19.4
2014-Jul-27 07:29 295 3 gusting 9 18.9
2014-Jul-27 07:24 302 6 gusting 10 18.9
2014-Jul-27 07:19 313 3 gusting 9 18.9
2014-Jul-27 07:14 310 5 gusting 9 18.9
2014-Jul-27 07:09 266 3 gusting 6 18.9
2014-Jul-27 07:04 284 3 gusting 6 18.9
2014-Jul-27 06:59 297 3 gusting 8 18.9
2014-Jul-27 06:54 319 4 gusting 8 18.9
2014-Jul-27 06:49 298 5 gusting 8 18.9
2014-Jul-27 06:44 301 1 gusting 6 18.9
2014-Jul-27 06:39 308 2 gusting 5 18.9
2014-Jul-27 06:34 276 1 gusting 7 18.9
2014-Jul-27 06:29 273 4 gusting 7 18.3
2014-Jul-27 06:24 263 1 gusting 6 18.3
2014-Jul-27 06:19 262 2 gusting 7 18.3
2014-Jul-27 06:14 265 3 gusting 6 18.3
2014-Jul-27 06:09 266 4 gusting 6 18.3
2014-Jul-27 06:04 292 3 gusting 6 18.3
2014-Jul-27 05:54 284 2 gusting 6 18.3
2014-Jul-27 05:49 269 4 gusting 6 18.3
2014-Jul-27 05:44 285 18.3
2014-Jul-27 05:39 311 3 gusting 6 18.3
2014-Jul-27 05:34 256 2 gusting 7 18.3
2014-Jul-27 05:29 276 3 gusting 7 18.3
2014-Jul-27 05:24 285 1 gusting 5 18.3
2014-Jul-27 05:19 286 0 gusting 5 18.3
2014-Jul-27 05:14 240 3 gusting 5 18.3
2014-Jul-27 05:09 323 0 gusting 4 18.3
2014-Jul-27 05:04 323 18.3
2014-Jul-27 04:59 323 18.3
2014-Jul-27 04:54 247 0 gusting 4 17.8
2014-Jul-27 04:49 247 17.8
2014-Jul-27 04:44 247 1 gusting 4 17.8
2014-Jul-27 04:39 248 17.8
2014-Jul-27 04:34 247 17.8
2014-Jul-27 04:29 247 17.8
2014-Jul-27 04:24 247 17.8
2014-Jul-27 04:19 247 17.8
2014-Jul-27 04:14 247 1 gusting 4 17.8
2014-Jul-27 04:09 247 0 gusting 4 17.8
2014-Jul-27 04:04 248 17.8
2014-Jul-27 03:59 247 2 gusting 4 17.8
2014-Jul-27 03:54 247 0 gusting 3 17.8
2014-Jul-27 03:49 247 1 gusting 4 17.8
2014-Jul-27 03:39 248 1 gusting 4 17.8
2014-Jul-27 03:34 247 0 gusting 2 17.8
2014-Jul-27 03:29 247 17.8
2014-Jul-27 03:24 247 0 gusting 3 17.8
2014-Jul-27 03:19 247 0 gusting 4 17.8
2014-Jul-27 03:14 247 1 gusting 4 17.8
2014-Jul-27 03:09 249 0 gusting 4 17.8
2014-Jul-27 03:04 250 1 gusting 4 17.8
2014-Jul-27 02:59 250 17.8
2014-Jul-27 02:54 249 2 gusting 4 17.8
2014-Jul-27 02:49 249 1 gusting 2 17.8
2014-Jul-27 02:44 249 17.8
2014-Jul-27 02:39 249 17.8
2014-Jul-27 02:34 249 17.8
2014-Jul-27 02:29 249 2 gusting 5 17.8
2014-Jul-27 02:24 234 3 gusting 5 17.8
2014-Jul-27 02:19 271 1 gusting 6 17.8
2014-Jul-27 02:14 244 2 gusting 6 17.8
2014-Jul-27 02:09 236 0 gusting 3 17.8
2014-Jul-27 02:04 220 0 gusting 4 17.8
2014-Jul-27 01:59 219 0 gusting 4 17.8
2014-Jul-27 01:54 177 17.8
2014-Jul-27 01:49 177 0 gusting 1 17.8
2014-Jul-27 01:44 177 17.8
2014-Jul-27 01:39 177 17.8
2014-Jul-27 01:34 177 17.8
2014-Jul-27 01:29 177 17.8
2014-Jul-27 01:24 177 17.8
2014-Jul-27 01:19 177 17.2
2014-Jul-27 01:14 177 0 gusting 4 17.2
2014-Jul-27 01:09 177 17.2
2014-Jul-27 01:04 177 17.2
2014-Jul-27 00:59 177 3 gusting 4 17.2
2014-Jul-27 00:54 177 17.8
2014-Jul-27 00:49 177 0 gusting 3 17.8
2014-Jul-27 00:44 177 1 gusting 3 17.8
2014-Jul-27 00:39 177 17.8
2014-Jul-27 00:34 177 17.8
2014-Jul-27 00:29 177 17.8
2014-Jul-27 00:24 177 0 gusting 2 17.8
2014-Jul-27 00:19 177 17.8
2014-Jul-27 00:14 177 0 gusting 3 17.8
2014-Jul-27 00:09 177 17.8
2014-Jul-27 00:04 177 17.8
2014-Jul-26 23:59 177 17.8
2014-Jul-26 23:54 177 2 gusting 4 17.8
2014-Jul-26 23:49 177 1 gusting 2 17.8
2014-Jul-26 23:44 177 17.8
2014-Jul-26 23:39 177 17.8
2014-Jul-26 23:34 177 17.8
2014-Jul-26 23:29 177 17.8
2014-Jul-26 23:24 177 17.8
2014-Jul-26 23:19 177 17.8
2014-Jul-26 23:14 177 0 gusting 3 17.8
2014-Jul-26 23:09 177 17.8
2014-Jul-26 23:04 177 17.8
2014-Jul-26 22:59 177 0 gusting 3 17.8
2014-Jul-26 22:54 177 0 gusting 2 17.8
2014-Jul-26 22:49 177 17.8
2014-Jul-26 22:44 177 17.8
2014-Jul-26 22:39 177 1 gusting 4 17.8
2014-Jul-26 22:34 177 0 gusting 3 18.3
2014-Jul-26 22:29 177 18.3
2014-Jul-26 22:24 177 0 gusting 2 18.3
2014-Jul-26 22:19 177 1 gusting 3 18.3
2014-Jul-26 22:14 177 18.3
2014-Jul-26 22:09 177 4 gusting 5 18.3
2014-Jul-26 22:05 197 1 gusting 4 18.3
2014-Jul-26 21:59 198 2 gusting 4 18.3
2014-Jul-26 21:54 198 18.3
2014-Jul-26 21:49 198 2 gusting 5 18.3
2014-Jul-26 21:44 173 2 gusting 4 18.3
2014-Jul-26 21:39 173 18.3
2014-Jul-26 21:34 173 18.3
2014-Jul-26 21:29 173 1 gusting 4 18.3
2014-Jul-26 21:24 097 18.3
2014-Jul-26 21:19 097 1 gusting 2 18.3
2014-Jul-26 21:14 097 18.3
2014-Jul-26 21:09 097 18.3
2014-Jul-26 21:04 097 0 gusting 3 18.3
2014-Jul-26 20:59 097 18.3
2014-Jul-26 20:54 097 18.3
2014-Jul-26 20:49 097 18.3
2014-Jul-26 20:44 097 18.3
2014-Jul-26 20:39 097 0 gusting 3 18.3
2014-Jul-26 20:34 097 18.3
2014-Jul-26 20:29 097 0 gusting 3 18.3
2014-Jul-26 20:24 097 18.3
2014-Jul-26 20:19 097 1 gusting 4 18.3
2014-Jul-26 20:14 097 1 gusting 4 18.3
2014-Jul-26 20:09 097 18.3
2014-Jul-26 20:04 097 0 gusting 2 18.3
2014-Jul-26 19:59 097 18.3
2014-Jul-26 19:54 098 18.3
2014-Jul-26 19:49 097 0 gusting 4 18.3
2014-Jul-26 19:44 172 18.3
2014-Jul-26 19:39 172 18.3
2014-Jul-26 19:34 172 18.3
2014-Jul-26 19:29 172 1 gusting 4 18.3
2014-Jul-26 19:24 172 1 gusting 5 18.3
2014-Jul-26 19:19 172 0 gusting 5 18.3
2014-Jul-26 19:14 184 2 gusting 4 18.3
2014-Jul-26 19:04 163 2 gusting 6 18.3
2014-Jul-26 18:59 207 3 gusting 6 18.3
2014-Jul-26 18:54 169 3 gusting 6 18.3
2014-Jul-26 18:49 175 3 gusting 6 18.3
2014-Jul-26 18:44 159 4 gusting 6 18.3
2014-Jul-26 18:39 202 5 gusting 6 18.3
2014-Jul-26 18:34 209 3 gusting 8 18.3
2014-Jul-26 18:29 156 6 gusting 8 18.3
2014-Jul-26 18:24 110 5 gusting 6 18.9
2014-Jul-26 18:19 163 1 gusting 6 18.9
2014-Jul-26 18:14 161 3 gusting 8 18.9
2014-Jul-26 18:09 163 5 gusting 9 18.9
2014-Jul-26 18:04 191 6 gusting 9 18.9
2014-Jul-26 17:59 177 4 gusting 7 18.9
2014-Jul-26 17:54 219 3 gusting 7 18.9
2014-Jul-26 17:49 183 4 gusting 7 18.9
2014-Jul-26 17:44 211 5 gusting 9 18.9
2014-Jul-26 17:39 203 6 gusting 9 18.9
2014-Jul-26 17:34 187 3 gusting 4 18.9
2014-Jul-26 17:29 187 18.9
2014-Jul-26 17:24 187 0 gusting 3 18.9
2014-Jul-26 17:19 187 18.9
2014-Jul-26 17:14 187 4 gusting 6 18.9
2014-Jul-26 17:09 161 3 gusting 5 18.9
2014-Jul-26 17:04 200 18.9
2014-Jul-26 16:59 200 3 gusting 5 18.9
2014-Jul-26 16:54 286 2 gusting 4 18.9
2014-Jul-26 16:49 286 2 gusting 4 18.9
2014-Jul-26 16:44 286 1 gusting 12 18.9
2014-Jul-26 16:39 348 6 gusting 12 18.9
2014-Jul-26 16:34 005 5 gusting 10 18.9
2014-Jul-26 16:29 257 6 gusting 10 18.9
2014-Jul-26 16:24 257 5 gusting 8 18.9
2014-Jul-26 16:19 323 5 gusting 10 18.9
2014-Jul-26 16:14 335 6 gusting 13 18.9
2014-Jul-26 16:09 299 6 gusting 13 19.4
2014-Jul-26 16:04 290 8 gusting 13 19.4
2014-Jul-26 15:59 309 5 gusting 11 19.4
2014-Jul-26 15:54 256 6 gusting 13 19.4
2014-Jul-26 15:44 318 8 gusting 21 19.4
2014-Jul-26 15:39 013 9 gusting 21 19.4
2014-Jul-26 15:34 300 10 gusting 23 19.4
2014-Jul-26 15:29 311 13 gusting 23 20.0
2014-Jul-26 15:24 302 13 gusting 23 20.6
2014-Jul-26 15:19 292 12 gusting 26 21.1
2014-Jul-26 15:14 267 17 gusting 26 21.7
2014-Jul-26 15:09 335 6 gusting 9 21.7
2014-Jul-26 15:04 287 6 gusting 8 21.1
2014-Jul-26 14:59 252 5 gusting 8 21.1
2014-Jul-26 14:54 242 3 gusting 7 21.1
2014-Jul-26 14:49 225 4 gusting 6 21.1
2014-Jul-26 14:44 180 2 gusting 6 21.1
2014-Jul-26 14:39 193 4 gusting 6 20.6
2014-Jul-26 14:29 169 3 gusting 6 20.6
2014-Jul-26 14:24 157 4 gusting 6 20.6
2014-Jul-26 14:19 173 3 gusting 6 20.6
2014-Jul-26 14:14 176 4 gusting 8 20.6
2014-Jul-26 14:09 139 4 gusting 9 21.1
2014-Jul-26 14:04 169 6 gusting 10 21.1
2014-Jul-26 13:59 211 6 gusting 10 21.1
2014-Jul-26 13:54 193 6 gusting 12 21.1
2014-Jul-26 13:49 163 6 gusting 12 21.1
2014-Jul-26 13:44 163 7 gusting 13 21.1
2014-Jul-26 13:39 186 8 gusting 13 21.7
2014-Jul-26 13:34 159 6 gusting 13 21.7
2014-Jul-26 13:29 115 9 gusting 16 21.7
2014-Jul-26 13:14 130 8 gusting 17 21.7
2014-Jul-26 13:09 121 7 gusting 13 21.7
2014-Jul-26 13:04 122 8 gusting 15 21.7
2014-Jul-26 12:59 117 9 gusting 17 21.1
2014-Jul-26 12:54 121 10 gusting 17 21.1
2014-Jul-26 12:49 149 8 gusting 15 21.1
2014-Jul-26 12:44 125 9 gusting 16 21.1
2014-Jul-26 12:39 135 10 gusting 16 21.7
2014-Jul-26 12:34 148 10 gusting 16 21.7
2014-Jul-26 12:29 117 6 gusting 19 22.2
2014-Jul-26 12:24 108 10 gusting 19 22.8
2014-Jul-26 12:19 111 9 gusting 18 23.9
2014-Jul-26 12:14 114 6 gusting 13 23.9
2014-Jul-26 12:09 135 8 gusting 16 23.9
2014-Jul-26 12:04 115 6 gusting 19 24.4
2014-Jul-26 11:59 132 12 gusting 21 25.0
2014-Jul-26 11:54 127 8 gusting 21 25.6
2014-Jul-26 11:49 157 4 gusting 12 26.1
2014-Jul-26 11:44 120 7 gusting 12 26.1
2014-Jul-26 11:39 096 6 gusting 10 26.7
2014-Jul-26 11:34 107 5 gusting 9 27.2
2014-Jul-26 11:29 057 3 gusting 10 27.8
2014-Jul-26 11:24 030 6 gusting 10 27.8
2014-Jul-26 11:19 040 3 gusting 9 27.8
2014-Jul-26 11:14 103 5 gusting 9 28.3
2014-Jul-26 11:09 113 6 gusting 10 28.3
2014-Jul-26 11:04 051 6 gusting 12 27.8
2014-Jul-26 10:59 055 9 gusting 12 27.8
2014-Jul-26 10:54 059 8 gusting 13 28.3
2014-Jul-26 10:49 074 8 gusting 13 28.3
2014-Jul-26 10:44 022 8 gusting 13 28.9
2014-Jul-26 10:39 053 10 gusting 13 28.9
2014-Jul-26 10:34 076 7 gusting 11 28.3
2014-Jul-26 10:29 045 7 gusting 11 28.3
2014-Jul-26 10:24 065 7 gusting 12 28.3
2014-Jul-26 10:19 360 7 gusting 12 28.3